Погода в Нагорном

Украина / Одесская область     45°25′46″N   28°26′55″E
темп.,
°C
ветер,
м/с
пор.,
м/с
влажн.,
%
обл.,
%
осадки,
мм/ч
давл.,
гПа
погр.,
м
3 августа, вт
вт300:00+24ссв611670 0.0 1010315
03:00+22с47763 0.1 1011164
06:00+20с6108694 0.4 1013274
09:00+24ссв786647 0.4 1014656
12:00+28ссв66500 0.0 10141193
15:00+30с55420 0.0 10141574
18:00+29ссз44406 0.0 10141583
21:00+25св4552100 0.0 101590
4 августа, ср
ср400:00+24в4656100 0.0 1016151
03:00+22всв34640 0.0 101685
06:00+21всв33651 0.3 101756
09:00+25вюв34555 0.3 1017401
12:00+29ю344595 0.0 10171031
15:00+32ююв243516 0.0 10141963
18:00+29ююв910505 0.0 1014609
21:00+25юв6964100 0.1 1015446
5 августа, чт
чт500:00+24юв597191 0.1 1015370
03:00+22юв358198 0.1 1015104
06:00+22юв34851 0.0 101473
09:00+26ююв57610 0.0 1013572
12:00+31ююв89400 0.0 10111126
15:00+32ююв910410 0.0 10091254
18:00+30юв1012507 0.0 1007827
21:00+25ююв916795 0.0 1007657
6 августа, пт
пт600:00+26ююз71272100 0.0 1008722
03:00+25юв6108098 0.0 1005466
06:00+24юв6118358 0.0 1004495
09:00+28ююв71160100 0.0 1004789
12:00+31ю5743100 0.0 10031386
15:00+34юз3534100 0.0 10031923
18:00+25сз101367100 0.0 1004356
21:00+25ссз3348100 0.0 100354
7 августа, сб
сб700:00+23з1155100 0.0 100523
03:00+22ююз5770100 0.6 1007176
06:00+19сз6108585 1.3 1006275
09:00+22с7972100 1.3 1009575
12:00+26с895369 0.0 10091089
15:00+29с67431 0.0 10101730
18:00+29с674010 0.0 10101892
21:00+23ссв59570 0.0 1011236